Regional Weather Roundup
Issued by NWS

Home | Current Version | Previous Version | Graphics & Text | Print | Product List | Glossary On
Versions: 1 2 3 4 5 6 7 8 9 10 11 12 13 14 15 16 17 18 19 20 21 22 23 24 25 26 27 28 29 30 31 32 33 34 35 36 37 38 39 40 41 42 43 44 45 46 47 48 49 50
000
ASUS43 KIND 261200
RWRIN

WEATHER ROUNDUP FOR INDIANA
NATIONAL WEATHER SERVICE INDIANAPOLIS IN
800 AM EDT FRI MAY 26 2017

NOTE: "FAIR" INDICATES FEW OR NO CLOUDS BELOW 12,000 FEET WITH NO
SIGNIFICANT WEATHER AND/OR OBSTRUCTIONS TO VISIBILITY.

* - STATION DOES NOT REPORT WEATHER SUCH AS PRECIPITATION OR FOG.

+ - STATION NOT QUALITY CONTROLLED BY THE NATIONAL WEATHER SERVICE.
    USE DATA WITH CAUTION...ESPECIALLY DEWPOINT AND RELATIVE
    HUMIDITY OBSERVATIONS.

INZ001>003-010>013-019-020-261300-
NORTHWEST INDIANA

CITY           SKY/WX    TMP DP  RH WIND       PRES   REMARKS
GARY /AIRPORT/ PTSUNNY   54  54 100 CALM      29.87R
MICHIGAN CITY+ MOSUNNY   50  50 100 CALM      29.88R FOG
MONTICELLO +   CLOUDY    54  53  95 CALM      29.87S FOG
6HR MIN TEMP:  49; 6HR MAX TEMP:  54;

RENSSELAER +   PTSUNNY   55  54  94 CALM      29.87S FOG
VALPARAISO     CLOUDY    56  53  90 CALM      29.88R FOG

$$

LMZ046-743>745-261300-
SOUTHERN LAKE MICHIGAN

STATION/POSITION TIME  TEMP    WIND        PRES    WAVE
                       AIR SEA DIR/SP/G            HT
                 (UTC) (F)     (DEG/KT/KT) (MB)    (FT)
BURNS HARBOR     1140   55     200/  1/  2 1011.9R
MICHIGAN CITY    1130   53     200/  2/  2   N/A
5NW MICH CITY    1150   52 51  210/  4/  4   N/A     2

$$

INZ004-005-014>016-021>024-261300-
NORTH CENTRAL INDIANA

CITY           SKY/WX    TMP DP  RH WIND       PRES   REMARKS
ELKHART        CLOUDY    52  50  93 W6        29.86R
GOSHEN         CLOUDY    53  50  89 NW5       29.87R
6HR MIN TEMP:  51; 6HR MAX TEMP:  53;

SOUTH BEND     CLOUDY    52  51  97 CALM      29.87R
6HR MIN TEMP:  47; 6HR MAX TEMP:  52;


$$

INZ006>009-017-018-025>027-261300-
NORTHEAST INDIANA

CITY           SKY/WX    TMP DP  RH WIND       PRES   REMARKS
ANGOLA *+      CLOUDY    54  43  66 N6        29.85R
FORT WAYNE     MOSUNNY   55  52  89 W5        29.86R
6HR MIN TEMP:  52; 6HR MAX TEMP:  55;

KENDALLVILLE + CLOUDY    52  52 100 NW3       29.86R FOG

$$

INZ028-029-035-036-043>045-051>053-261300-
WEST CENTRAL INDIANA

CITY           SKY/WX    TMP DP  RH WIND       PRES   REMARKS
CRAWFORDSVL +  CLOUDY    52  52 100 CALM      29.89R FOG
6HR MIN TEMP:  47; 6HR MAX TEMP:  52;

GREENCASTLE +  CLOUDY    54  54 100 CALM      29.90R FOG
LAFAYETTE      CLOUDY    53  53 100 CALM      29.88R FOG
6HR MIN TEMP:  48; 6HR MAX TEMP:  53;

TERRE HAUTE    CLOUDY    57  55  93 CALM      29.88R FOG
6HR MIN TEMP:  51; 6HR MAX TEMP:  57;


$$

INZ030>032-037>040-046>048-054>057-064-065-261300-
CENTRAL INDIANA

CITY           SKY/WX    TMP DP  RH WIND       PRES   REMARKS
COLUMBUS       SUNNY     55  54  94 CALM      29.90R
INDIANAPOLIS   CLOUDY    57  54  89 CALM      29.90R FOG
6HR MIN TEMP:  51; 6HR MAX TEMP:  57;

-EAGLE CREEK   CLOUDY    56  53  90 CALM      29.89R FOG
6HR MIN TEMP:  51; 6HR MAX TEMP:  57;

KOKOMO +       SUNNY     56  53  90 W3        29.89S FOG
6HR MIN TEMP:  52; 6HR MAX TEMP:  56;

SHELBYVILLE    SUNNY     58  53  84 S5        29.89S HAZE
6HR MIN TEMP:  53; 6HR MAX TEMP:  58;


$$

INZ033-034-041-042-049-050-058-059-261300-
EAST CENTRAL INDIANA

CITY           SKY/WX    TMP DP  RH WIND       PRES   REMARKS
MUNCIE         SUNNY     57  53  86 W7        29.89R
6HR MIN TEMP:  55; 6HR MAX TEMP:  58;

RICHMOND +     SUNNY     54  52  94 W5        29.90R FOG

$$

INZ060-061-067>069-081>083-085>088-261300-
SOUTHWEST INDIANA

CITY           SKY/WX    TMP DP  RH WIND       PRES   REMARKS
EVANSVILLE     SUNNY     61  55  81 CALM      29.89S
6HR MIN TEMP:  54; 6HR MAX TEMP:  61;

HUNTINGBURG *+ SUNNY     59  55  87 SE7       29.91R
6HR MIN TEMP:  54; 6HR MAX TEMP:  59;


$$

INZ062-063-066-070>080-084-089>092-261300-
SOUTH CENTRAL AND SOUTHEAST INDIANA

CITY           SKY/WX    TMP DP  RH WIND       PRES   REMARKS
BLOOMINGTON    MOSUNNY   54  52  93 CALM      29.90R FOG
6HR MIN TEMP:  49; 6HR MAX TEMP:  54;

MADISON *+     SUNNY     57  55  94 S3        29.93R
SEYMOUR +      SUNNY     57  57 100 CALM      29.91R FOG

$$





USA.gov is the U.S. government's official web portal to all federal, state and local government web resources and services.